Regional Weather Roundup
Issued by NWS Goodland, KS

Home | Current Version | Previous Version | Text Only | Print | Product List | Glossary On
Versions: 1 2 3 4 5 6 7 8 9 10 11 12 13 14 15 16 17 18 19 20 21 22 23 24 25 26 27 28 29 30 31 32 33 34 35 36 37 38 39 40 41 42 43 44 45 46 47 48 49 50
000
ASUS43 KGLD 242108
RWRGLD

GOODLAND FORECAST AREA HOURLY WEATHER ROUNDUP
NATIONAL WEATHER SERVICE GOODLAND KS
300 PM MDT WED MAY 24 2017

...OFFICIAL OBSERVATIONS...

CITY           SKY/WX    TMP DP  RH WIND       PRES   REMARKS
GOODLAND KS    SUNNY     73  45  36 S15       29.67F
HILL CITY KS   SUNNY     68  37  32 VRB5      29.72F
IMPERIAL NEB   SUNNY     71  43  36 S14G22    29.64F
MCCOOK NEB     SUNNY     71  41  33 S12       29.68F
AKRON CO       SUNNY     78  39  24 SW9G21    29.64F
BURLINGTON CO  SUNNY     75  46  35 S14       29.69F
LIMON CO       MOSUNNY   78  40  25 S17G23    29.70F
$$

...UNOFFICIAL OBSERVATIONS...

CITY           SKY/WX    TMP DP  RH WIND       PRES   REMARKS
LENORA KS        N/A     73  32  22 MISG        N/A
NORTON KS      SUNNY     68  37  32 S6        29.70F
SHARON SPRINGS   N/A     74  43  32 S10G18      N/A
TRENTON NEB      N/A     73  32  22 S8          N/A
KIT CARSON CO    N/A     74  44  34 MISG        N/A
$$



USA.gov is the U.S. government's official web portal to all federal, state and local government web resources and services.